Weather Roundup
Issued by NWS Springfield, MO

Home | Current Version | Previous Version | Text Only | Print | Product List | Glossary On
Versions: 1 2 3 4 5 6 7 8 9 10 11 12 13 14 15 16 17 18 19 20 21 22 23 24 25 26 27 28 29 30 31 32 33 34 35 36 37 38 39 40 41 42 43 44 45 46 47 48 49 50
000
NZUS99 KSGF 191607
HRRSGF

HOURLY WEATHER
NATIONAL WEATHER SERVICE SPRINGFIELD MO
1000 AM CST THU JAN 19 2017

......SGF CWA......

CITY           SKY/WX    TMP DP  RH WIND       PRES   REMARKS
SPRINGFIELD    CLOUDY    46  44  93 SE10      29.81F FOG
JOPLIN         CLOUDY    49  48  97 S9        29.81S
WEST PLAINS    FOG       45  44  97 E8        29.87F VSB 1/4
ROLLA          LGT RAIN  43  43 100 SE7       29.86R FOG
OSAGE BEACH    CLOUDY    45  44  97 SE6       29.85F FOG
BRANSON        FOG       45  45 100 CALM      29.86R VSB 3/4

......SURROUNDING SGF CWA......

CITY           SKY/WX    TMP DP  RH WIND       PRES   REMARKS
CHANUTE        CLOUDY    46  45  96 S9        29.79S FOG
PARSONS        CLOUDY    46  45  96 S5        29.80F FOG
COFFEYVILLE    CLOUDY    46  46 100 S10       29.80S
EMPORIA        CLOUDY    44  44 100 SE10      29.76S FOG
GROVE OK       CLOUDY    48  48 100 S5        29.83S FOG
ROGERS AR      FOG       45  45 100 E5        29.82S VSB 1/4
SILOAM SPRINGS CLOUDY    48  46  93 S7        29.81S VSB 3/4
HARRISON AR    FOG       44  44 100 SE6       29.85S VSB 1/2
NEAR YELLVILLE CLOUDY    45  39  81 E6        29.85S

......KANSAS AND MISSOURI......

CITY           SKY/WX    TMP DP  RH WIND       PRES   REMARKS
KANSAS CTY INT DRZL/FOG  45  43  93 S7        29.80S VSB 1/4
DOWNTOWN KC    CLOUDY    46  45  96 S3        29.80S FOG
COLUMBIA       FOG       43  43 100 SE10      29.86S VSB 3/4
SEDALIA        CLOUDY    46  45  96 SE7       29.84F FOG
ST JOSEPH      FOG       43  43 100 S6        29.81S VSB 1
ST LOUIS       LGT RAIN  45  42  89 SE9       29.91F FOG
SPIRIT OF STL  CLOUDY    44  43  96 E7        29.89F FOG
KIRKSVILLE     FOG       39  39 100 E5        29.84F VSB 1/4
WICHITA        CLOUDY    47  45  93 SE16G24   29.70F FOG
TOPEKA         CLOUDY    46  43  89 SE5       29.78F FOG
OLATHE         FOG       43  43 100 S3        29.80S VSB 1

......TENNESSEE......

CITY           SKY/WX    TMP DP  RH WIND       PRES   REMARKS
MEMPHIS        LGT RAIN  64  63  96 S8        29.87R FOG
NASHVILLE      CLOUDY    51  48  89 E3        29.99S

......ARKANSAS.......

CITY           SKY/WX    TMP DP  RH WIND       PRES   REMARKS
FAYETTEVILLE   CLOUDY    50  50 100 CALM      29.81S
FT SMITH       CLOUDY    48  46  93 E6        29.84S FOG
LITTLE ROCK    CLOUDY    48  48 100 CALM      29.86F FOG

......OKLAHOMA.......

CITY           SKY/WX    TMP DP  RH WIND       PRES   REMARKS
TULSA          DRIZZLE   49  47  93 S10       29.79F
MCALESTER      CLOUDY    51  48  89 VRB6      29.81S
OKLAHOMA CITY  FOG       47  46  97 S13       29.73S VSB 3/4

......IOWA............

CITY           SKY/WX    TMP DP  RH WIND       PRES   REMARKS
DES MOINES     CLOUDY    34  33  96 SE6       29.85F FOG     WCI  29
QUAD CITIES    CLOUDY    36  33  89 NE5       29.91S FOG     WCI  32

......ILLINOIS........

CITY           SKY/WX    TMP DP  RH WIND       PRES   REMARKS
QUINCY         LGT RAIN  41  41 100 S8        29.88S VSB 1
CHICAGO        CLOUDY    36  35  96 SE5       29.98F FOG     WCI  32




USA.gov is the U.S. government's official web portal to all federal, state and local government web resources and services.